Flag for Estonia Weather past 2 weeks in Pärnu, Estonia

Now
56 °F

Low clouds.


Feels Like: 56 °F
Forecast: 53 / 65 °F
Wind: 1 mph from East

Location: Pjarnu

Current Time: Sep 3, 2015 at 1:55:35 AM

Latest Report: Sep 3, 2015 at 12:00 AM


Visibility: 22 mi

Pressure: 29.82 "Hg

Humidity: 94%

Dew point: 54 °F

Location of PärnuLocation

Historic Weather in Pärnu — Graph

°F

Pärnu temperature yesterday

Maximum temperature yesterday: 57 °F (at 4:00 PM)
Minimum temperature yesterday: 54 °F (at 3:00 AM)
Average temperature yesterday: 55 °F

Past Weeks' High & Low Weather Summary

 TemperatureHumidityPressure
High85 °F (Aug 25, 4:00 PM)96% (Aug 31, 12:00 AM)30.47 "Hg (Aug 31, 12:00 AM)
Low41 °F (Aug 19, 6:00 AM)28% (Aug 25, 4:00 PM)29.69 "Hg (Aug 28, 1:00 PM)
Average62 °F74%30.11 "Hg
* Reported Midnight between Aug 18 and Aug 19 — Midnight between Sep 2 and Sep 3, Pärnu, Weather by CustomWeather, © 2015

Note: Actual official high and low records may vary slightly from our data, if they occured in-between our weather recording intervals... More about our weather records

Advertising

Pärnu weather history for previous 24 hours

 ConditionsComfort  
Time TempWeatherWind HumidityBarometerVisibility
12:00 AM
Thu, Sep 3
56 °FLow clouds.1 mph94%29.82 "Hg22 mi
11:00 PM
Wed, Sep 2
56 °FLow clouds.2 mph94%29.81 "Hg16 mi
10:00 PM56 °FLow clouds.2 mph94%29.81 "Hg28 mi
9:00 PM56 °FLight rain. Low clouds.2 mph94%29.81 "Hg22 mi
8:00 PM56 °FLight rain. Low clouds.2 mph94%29.80 "Hg4 mi
7:00 PM56 °FLight rain. Low clouds.2 mph94%29.79 "Hg4 mi
6:00 PM56 °FRain. Low clouds.2 mph92%29.80 "Hg4 mi
5:00 PM56 °FRain. Low clouds.2 mph92%29.80 "Hg5 mi
4:00 PM57 °FLight rain. Low clouds.2 mph91%29.80 "Hg8 mi
3:00 PM56 °FLight rain. Low clouds.2 mph93%29.80 "Hg6 mi
2:00 PM56 °FLight rain. Low clouds.2 mph92%29.80 "Hg2 mi
1:00 PM56 °FDrizzle. Low clouds.3 mph90%29.80 "Hg3 mi
12:00 PM56 °FLow clouds.5 mph88%29.79 "Hg22 mi
11:00 AM55 °FOvercast.3 mph89%29.79 "Hg31 mi
10:00 AM55 °FDrizzle. Overcast.3 mph89%29.79 "Hg22 mi
9:00 AM55 °FLow clouds.3 mph87%29.79 "Hg31 mi
8:00 AM55 °FLow clouds.6 mph88%29.77 "Hg31 mi
6:00 AM55 °FLow clouds.6 mph89%29.78 "Hg31 mi
5:00 AM54 °FLow clouds.6 mph90%29.79 "Hg31 mi
4:00 AM54 °FLow clouds.5 mph91%29.79 "Hg31 mi
3:00 AM54 °FLow clouds.6 mph91%29.80 "Hg7 mi
2:00 AM55 °FLow clouds.5 mph91%29.81 "Hg28 mi
1:00 AM54 °FLow clouds.6 mph91%29.81 "Hg28 mi
Weather by CustomWeather, © 2015

See weather overviewHow to use our weather pages